20060708,000020,86400,32.707135,-117.236775,0.0,25.592,33.891,52.174,2114.21,0.0,10.313,22.253, NaN, NaN,22.323,   NaN,23.64,1013.16,74.65,23.64,95.1,88.7,2.0,2.3,278.1,271.5,2.0,2.3,NaN, NaN,27.0,181.7,354.3,1152316820,1152316819,2,0.0,000020,000019,181.7,32.707293,-117.236700,NaN,NaN,NaN,25.598, NaN,NaN,NaN, NaN, NaN
20060708,000050,86429,32.707101,-117.236792,0.0,25.594,33.891,52.176,2116.00,0.0,10.332,22.286, NaN, NaN,22.322,   NaN,23.71,1013.14,74.17,23.71,92.3,83.5,2.8,3.0,275.1,266.2,2.8,3.0,NaN, NaN,25.0,181.7,354.3,1152316849,1152316849,2,0.0,000050,000049,181.7,32.707286,-117.236707,NaN,NaN,NaN,25.600, NaN,NaN,NaN, NaN, NaN
20060708,000120,86459,32.707108,-117.236777,0.0,25.594,33.890,52.176,2113.77,0.0,10.294,22.306, NaN, NaN,22.322,   NaN,23.72,1013.16,73.97,23.71,79.8,77.0,2.5,2.3,262.5,259.8,2.5,2.3,NaN, NaN,25.0,181.7,354.3,1152316880,1152316879,2,0.0,000080,000079,181.7,32.707285,-117.236693,NaN,NaN,NaN,25.600, NaN,NaN,NaN, NaN, NaN
20060708,000150,86489,32.707115,-117.236768,0.0,25.595,33.891,52.178,2117.47,0.0,10.276,22.297, NaN, NaN,22.322,   NaN,23.75,1013.19,74.31,23.75,70.0,67.7,1.6,1.6,253.4,251.0,1.6,1.6,NaN, NaN,22.0,181.8,354.3,1152316910,1152316909,2,0.0,000110,000109,181.8,32.707278,-117.236705,NaN,NaN,NaN,25.601, NaN,NaN,NaN, NaN, NaN
20060708,000220,86520,32.707110,-117.236780,0.0,25.597,33.891,52.179,2114.63,0.0,10.313,22.268, NaN, NaN,22.321,   NaN,23.70,1013.17,73.73,23.69,83.1,78.7,2.2,2.4,266.5,262.0,2.1,2.4,NaN, NaN,20.0,181.7,354.3,1152316940,1152316939,2,0.0,000140,000139,181.7,32.707278,-117.236703,NaN,NaN,NaN,25.603, NaN,NaN,NaN, NaN, NaN
20060708,000250,86550,32.707120,-117.236758,0.0,25.597,33.891,52.180,2109.30,0.0,10.313,22.238, NaN, NaN,22.321,   NaN,23.52,1013.17,74.12,23.52,83.8,83.8,2.5,2.9,266.9,266.6,2.5,2.9,NaN, NaN,21.0,181.7,354.3,1152316970,1152316969,2,0.0,000170,000169,181.7,32.707283,-117.236703,NaN,NaN,NaN,25.603, NaN,NaN,NaN, NaN, NaN
20060708,000320,86579,32.707118,-117.236773,0.0,25.597,33.893,52.183,2101.14,0.0,10.313,22.208, NaN, NaN,22.323,   NaN,23.43,1013.14,74.97,23.42,76.8,76.0,2.6,3.1,259.7,258.6,2.6,3.1,NaN, NaN,23.0,181.7,354.3,1152317000,1152316999,2,0.0,000200,000199,181.7,32.707285,-117.236702,NaN,NaN,NaN,25.603, NaN,NaN,NaN, NaN, NaN
20060708,000350,86609,32.707135,-117.236773,0.0,25.600,33.892,52.184,2099.79,0.0,10.294,22.172, NaN, NaN,22.321,   NaN,23.43,1013.16,75.76,23.42,89.4,87.6,2.9,3.0,272.2,270.3,2.9,3.0,NaN, NaN,24.0,181.8,354.3,1152317030,1152317029,2,0.0,000230,000229,181.8,32.707278,-117.236708,NaN,NaN,NaN,25.606, NaN,NaN,NaN, NaN, NaN
20060708,000420,86639,32.707128,-117.236777,0.0,25.601,33.892,52.185,2100.34,0.0,10.313,22.136, NaN, NaN,22.321,   NaN,23.42,1013.18,75.80,23.41,105.6,106.6,3.1,2.4,288.4,289.6,3.1,2.4,NaN, NaN,26.0,181.8,354.3,1152317060,1152317059,2,0.0,000260,000259,181.7,32.707278,-117.236707,NaN,NaN,NaN,25.607, NaN,NaN,NaN, NaN, NaN
20060708,000450,86669,32.707145,-117.236747,0.0,25.602,33.891,52.185,2098.35,0.0,10.257,22.108, NaN, NaN,22.320,   NaN,23.45,1013.21,75.70,23.46,94.4,98.5,2.7,2.4,277.4,281.4,2.7,2.4,NaN, NaN,27.0,181.7,354.3,1152317090,1152317089,2,0.0,000290,000289,181.7,32.707286,-117.236708,NaN,NaN,NaN,25.608, NaN,NaN,NaN, NaN, NaN
20060708,000520,86700,32.707123,-117.236765,0.0,25.603,33.891,52.186,2088.39,0.0,10.332,22.088, NaN, NaN,22.319,   NaN,23.44,1013.18,75.13,23.44,82.6,84.6,2.9,3.0,265.5,267.3,2.8,3.0,NaN, NaN,27.0,181.7,354.3,1152317120,1152317119,2,0.0,000320,000319,181.7,32.707296,-117.236705,NaN,NaN,NaN,25.609, NaN,NaN,NaN, NaN, NaN
20060708,000550,86730,32.707115,-117.236777,0.0,25.605,33.891,52.187,2090.29,0.0,10.238,22.078, NaN, NaN,22.319,   NaN,23.38,1013.18,75.68,23.38,73.9,72.1,2.8,3.2,256.8,254.8,2.8,3.1,NaN, NaN,28.0,181.8,354.3,1152317150,1152317149,2,0.0,000350,000349,181.8,32.707291,-117.236708,NaN,NaN,NaN,25.611, NaN,NaN,NaN, NaN, NaN
20060708,000620,86759,32.707120,-117.236767,0.0,25.606,33.892,52.190,2077.61,0.0,10.294,22.067, NaN, NaN,22.319,   NaN,23.35,1013.14,76.14,23.34,71.7,67.4,2.4,3.1,254.6,250.1,2.4,3.0,NaN, NaN,27.0,181.9,354.3,1152317180,1152317179,2,0.0,000380,000379,181.9,32.707285,-117.236713,NaN,NaN,NaN,25.612, NaN,NaN,NaN, NaN, NaN
20060708,000650,86789,32.707111,-117.236778,0.0,25.608,33.890,52.190,2068.31,0.0,10.369,22.063, NaN, NaN,22.317,   NaN,23.26,1013.14,76.52,23.26,88.6,83.0,2.5,2.9,271.4,265.6,2.5,2.9,NaN, NaN,26.0,181.6,354.3,1152317210,1152317209,2,0.0,000410,000409,181.7,32.707290,-117.236730,NaN,NaN,NaN,25.614, NaN,NaN,NaN, NaN, NaN
20060708,000720,86819,32.707136,-117.236758,0.0,25.609,33.891,52.192,2075.56,0.0,10.313,22.061, NaN, NaN,22.317,   NaN,23.29,1013.15,77.13,23.27,99.1,89.0,2.5,2.5,281.7,271.7,2.5,2.5,NaN, NaN,23.0,181.7,354.3,1152317240,1152317239,2,0.0,000440,000439,181.7,32.707300,-117.236723,NaN,NaN,NaN,25.615, NaN,NaN,NaN, NaN, NaN
20060708,000750,86849,32.707133,-117.236760,0.0,25.610,33.891,52.193,2078.78,0.0,10.350,22.063, NaN, NaN,22.317,   NaN,23.31,1013.16,76.65,23.30,80.5,70.7,2.4,3.0,263.3,253.3,2.4,3.0,NaN, NaN,22.0,181.7,354.3,1152317270,1152317269,2,0.0,000470,000469,181.7,32.707311,-117.236710,NaN,NaN,NaN,25.616, NaN,NaN,NaN, NaN, NaN
20060708,000820,86880,32.707141,-117.236760,0.0,25.611,33.891,52.195,2079.24,0.0,10.332,22.062, NaN, NaN,22.317,   NaN,23.18,1013.17,76.80,23.18,58.3,56.2,2.4,3.3,241.1,238.7,2.4,3.3,NaN, NaN,21.0,181.7,354.3,1152317300,1152317299,2,0.0,000500,000499,181.7,32.707308,-117.236713,NaN,NaN,NaN,25.617, NaN,NaN,NaN, NaN, NaN
20060708,000850,86909,32.707140,-117.236768,0.0,25.612,33.892,52.197,2078.98,0.0,10.257,22.062, NaN, NaN,22.317,   NaN,23.22,1013.16,77.48,23.20,69.8,66.9,2.2,2.6,252.5,249.6,2.2,2.6,NaN, NaN,22.0,181.7,354.3,1152317330,1152317329,2,0.0,000530,000529,181.7,32.707311,-117.236702,NaN,NaN,NaN,25.618, NaN,NaN,NaN, NaN, NaN
20060708,000920,86939,32.707140,-117.236762,0.0,25.613,33.891,52.196,2074.69,0.0,10.257,22.069, NaN, NaN,22.316,   NaN,23.14,1013.18,77.05,23.14,80.8,77.1,2.7,3.2,263.5,259.8,2.7,3.2,NaN, NaN,23.0,181.7,354.3,1152317360,1152317359,2,0.0,000560,000559,181.7,32.707306,-117.236693,NaN,NaN,NaN,25.619, NaN,NaN,NaN, NaN, NaN
20060708,000950,86969,32.707111,-117.236777,0.0,25.615,33.892,52.199,2076.79,0.0,10.294,22.080, NaN, NaN,22.316,   NaN,23.06,1013.16,77.67,23.05,84.7,81.6,3.5,3.9,267.3,264.1,3.5,3.9,NaN, NaN,25.0,181.7,354.3,1152317390,1152317389,2,0.0,000590,000589,181.7,32.707310,-117.236688,NaN,NaN,NaN,25.621, NaN,NaN,NaN, NaN, NaN
20060708,001020,86999,32.707116,-117.236770,0.0,25.615,33.891,52.199,2086.11,0.0,10.350,22.085, NaN, NaN,22.316,   NaN,22.98,1013.17,77.98,22.98,88.6,88.7,3.2,3.3,271.4,271.4,3.2,3.3,NaN, NaN,24.0,181.8,354.3,1152317420,1152317419,2,0.0,000620,000619,181.8,32.707300,-117.236698,NaN,NaN,NaN,25.621, NaN,NaN,NaN, NaN, NaN
20060708,001050,87030,32.707113,-117.236767,0.0,25.617,33.891,52.201,2087.59,0.0,10.332,22.090, NaN, NaN,22.315,   NaN,22.95,1013.16,78.37,22.95,86.5,88.0,3.3,3.3,269.3,270.7,3.3,3.3,NaN, NaN,23.0,181.5,354.3,1152317450,1152317449,2,0.0,000650,000649,181.5,32.707286,-117.236697,NaN,NaN,NaN,25.623, NaN,NaN,NaN, NaN, NaN
20060708,001120,87060,32.707130,-117.236762,0.0,25.618,33.892,52.203,2083.50,0.0,10.350,22.101, NaN, NaN,22.315,   NaN,22.90,1013.15,78.27,22.89,90.2,88.1,4.3,3.9,272.7,270.7,4.3,3.9,NaN, NaN,21.0,181.8,354.3,1152317480,1152317479,2,0.0,000680,000679,181.8,32.707273,-117.236697,NaN,NaN,NaN,25.624, NaN,NaN,NaN, NaN, NaN
20060708,001150,87089,32.707135,-117.236753,0.0,25.620,33.892,52.204,2071.42,0.0,10.276,22.113, NaN, NaN,22.315,   NaN,22.85,1013.12,79.01,22.84,92.7,93.5,4.3,3.8,275.2,276.1,4.3,3.8,NaN, NaN,20.0,181.8,354.3,1152317510,1152317509,2,0.0,000710,000709,181.8,32.707281,-117.236690,NaN,NaN,NaN,25.626, NaN,NaN,NaN, NaN, NaN
20060708,001220,87119,32.707145,-117.236742,0.0,25.621,33.891,52.204,2067.37,0.0,10.313,22.119, NaN, NaN,22.314,   NaN,22.82,1013.14,79.49,22.82,88.0,90.1,2.9,2.7,270.9,273.0,2.9,2.7,NaN, NaN,18.0,181.7,354.3,1152317540,1152317539,2,0.0,000740,000739,181.7,32.707290,-117.236687,NaN,NaN,NaN,25.627, NaN,NaN,NaN, NaN, NaN
20060708,001250,87149,32.707111,-117.236783,0.0,25.621,33.892,52.206,2055.92,0.0,10.350,22.123, NaN, NaN,22.315,   NaN,22.85,1013.13,79.36,22.85,63.7,57.4,2.3,2.4,246.2,239.9,2.3,2.4,NaN, NaN,22.0,181.7,354.3,1152317570,1152317569,2,0.0,000770,000769,181.7,32.707285,-117.236682,NaN,NaN,NaN,25.627, NaN,NaN,NaN, NaN, NaN
20060708,001320,87179,32.707118,-117.236783,0.0,25.623,33.893,52.209,2055.36,0.0,10.332,22.121, NaN, NaN,22.315,   NaN,22.92,1013.13,79.49,22.92,66.8,71.1,2.1,2.3,249.6,253.7,2.1,2.3,NaN, NaN,25.0,181.8,354.3,1152317600,1152317599,2,0.0,000800,000799,181.8,32.707273,-117.236682,NaN,NaN,NaN,25.629, NaN,NaN,NaN, NaN, NaN
20060708,001350,87210,32.707121,-117.236777,0.0,25.624,33.891,52.208,2051.10,0.0,10.276,22.119, NaN, NaN,22.313,   NaN,22.95,1013.12,79.20,22.96,107.7,113.7,2.2,2.2,290.7,296.7,2.2,2.2,NaN, NaN,25.0,181.7,354.3,1152317630,1152317629,2,0.0,000830,000829,181.7,32.707278,-117.236692,NaN,NaN,NaN,25.630, NaN,NaN,NaN, NaN, NaN
20060708,001420,87240,32.707135,-117.236753,0.0,25.626,33.891,52.209,2058.84,0.0,10.276,22.118, NaN, NaN,22.312,   NaN,23.02,1013.11,78.80,23.02,116.0,110.5,2.5,2.4,298.8,293.4,2.5,2.4,NaN, NaN,22.0,182.0,354.3,1152317660,1152317659,2,0.0,000860,000859,181.9,32.707286,-117.236685,NaN,NaN,NaN,25.632, NaN,NaN,NaN, NaN, NaN
20060708,001450,87269,32.707135,-117.236747,0.0,25.626,33.891,52.210,2058.28,0.0,10.294,22.118, NaN, NaN,22.313,   NaN,23.14,1013.12,78.72,23.14,82.1,89.9,2.5,2.2,264.9,273.1,2.5,2.2,NaN, NaN,21.0,181.7,354.3,1152317690,1152317689,2,0.0,000890,000889,181.7,32.707288,-117.236695,NaN,NaN,NaN,25.632, NaN,NaN,NaN, NaN, NaN
20060708,001520,87299,32.707143,-117.236742,0.0,25.628,33.891,52.211,2051.64,0.0,10.332,22.126, NaN, NaN,22.312,   NaN,23.07,1013.10,78.31,23.09,75.6,85.5,2.7,2.4,258.5,268.6,2.7,2.4,NaN, NaN,20.0,182.0,354.3,1152317720,1152317719,2,0.0,000920,000919,181.8,32.707286,-117.236685,NaN,NaN,NaN,25.634, NaN,NaN,NaN, NaN, NaN
20060708,001550,87329,32.707136,-117.236760,0.0,25.629,33.892,52.213,2045.82,0.0,10.332,22.132, NaN, NaN,22.312,   NaN,23.04,1013.11,78.92,23.04,92.8,94.1,2.7,2.7,275.8,276.9,2.7,2.7,NaN, NaN,20.0,181.7,354.3,1152317750,1152317749,2,0.0,000950,000949,181.7,32.707278,-117.236687,NaN,NaN,NaN,25.635, NaN,NaN,NaN, NaN, NaN
20060708,001620,87359,32.707133,-117.236760,0.0,25.630,33.893,52.216,2047.06,0.0,10.257,22.136, NaN, NaN,22.313,   NaN,23.02,1013.13,79.52,23.02,88.5,90.2,2.4,2.4,271.2,272.9,2.3,2.4,NaN, NaN,18.0,181.8,354.3,1152317780,1152317779,2,0.0,000980,000979,181.8,32.707283,-117.236687,NaN,NaN,NaN,25.636, NaN,NaN,NaN, NaN, NaN
20060708,001650,87390,32.707136,-117.236745,0.0,25.631,33.893,52.217,2047.17,0.0,10.369,22.138, NaN, NaN,22.312,   NaN,22.98,1013.08,79.40,22.98,94.2,93.5,2.3,2.2,276.9,276.2,2.3,2.2,NaN, NaN,17.0,181.8,354.3,1152317810,1152317809,2,0.0,001010,001009,181.8,32.707286,-117.236682,NaN,NaN,NaN,25.637, NaN,NaN,NaN, NaN, NaN
20060708,001720,87419,32.707130,-117.236748,0.0,25.632,33.892,52.217,2038.76,0.0,10.294,22.138, NaN, NaN,22.312,   NaN,23.06,1013.10,79.67,23.06,98.9,97.2,3.2,2.7,281.5,279.9,3.2,2.7,NaN, NaN,19.0,181.7,354.3,1152317840,1152317839,2,0.0,001040,001039,181.7,32.707296,-117.236685,NaN,NaN,NaN,25.638, NaN,NaN,NaN, NaN, NaN
20060708,001750,87449,32.707121,-117.236753,0.0,25.634,33.892,52.218,2034.03,0.0,10.350,22.135, NaN, NaN,22.311,   NaN,23.10,1013.12,79.69,23.09,77.2,75.9,2.9,2.7,260.1,258.5,2.9,2.7,NaN, NaN,22.0,181.7,354.3,1152317870,1152317869,2,0.0,001070,001069,181.7,32.707310,-117.236668,NaN,NaN,NaN,25.640, NaN,NaN,NaN, NaN, NaN
20060708,001820,87479,32.707108,-117.236760,0.0,25.635,33.892,52.219,2031.56,0.0,10.332,22.130, NaN, NaN,22.310,   NaN,23.11,1013.09,79.35,23.10,68.1,63.6,2.5,2.8,251.0,246.3,2.5,2.7,NaN, NaN,22.0,181.7,354.3,1152317900,1152317899,2,0.0,001100,001099,181.7,32.707296,-117.236677,NaN,NaN,NaN,25.641, NaN,NaN,NaN, NaN, NaN
20060708,001850,87509,32.707115,-117.236762,0.0,25.636,33.893,52.222,2035.09,0.0,10.350,22.126, NaN, NaN,22.311,   NaN,23.05,1013.08,79.49,23.04,84.8,82.0,3.1,3.3,267.5,264.6,3.1,3.3,NaN, NaN,21.0,181.7,354.3,1152317930,1152317929,2,0.0,001130,001129,181.7,32.707283,-117.236690,NaN,NaN,NaN,25.642, NaN,NaN,NaN, NaN, NaN
20060708,001920,87540,32.707128,-117.236760,0.0,25.637,33.893,52.224,2033.90,0.0,10.276,22.129, NaN, NaN,22.311,   NaN,22.99,1013.07,79.93,22.99,73.6,79.1,2.7,2.8,256.4,262.0,2.7,2.7,NaN, NaN,21.0,181.7,354.3,1152317960,1152317959,2,0.0,001160,001159,181.7,32.707286,-117.236695,NaN,NaN,NaN,25.643, NaN,NaN,NaN, NaN, NaN
20060708,001950,87570,32.707138,-117.236755,0.0,25.638,33.892,52.224,2032.56,0.0,10.294,22.128, NaN, NaN,22.310,   NaN,22.94,1013.07,80.36,22.94,57.3,61.5,2.3,2.4,240.0,244.3,2.3,2.4,NaN, NaN,22.0,181.8,354.3,1152317990,1152317989,2,0.0,001190,001189,181.8,32.707283,-117.236697,NaN,NaN,NaN,25.644, NaN,NaN,NaN, NaN, NaN
20060708,002020,87599,32.707145,-117.236743,0.0,25.639,33.892,52.225,2015.67,0.0,10.350,22.132, NaN, NaN,22.309,   NaN,22.90,1013.02,80.65,22.90,56.7,58.4,2.3,2.4,239.4,241.1,2.3,2.3,NaN, NaN,22.0,181.9,354.3,1152318020,1152318019,2,0.0,001220,001219,181.9,32.707283,-117.236698,NaN,NaN,NaN,25.645, NaN,NaN,NaN, NaN, NaN
20060708,002050,87629,32.707146,-117.236748,0.0,25.640,33.894,52.228,2017.20,0.0,10.350,22.135, NaN, NaN,22.310,   NaN,22.88,1013.06,81.03,22.88,70.7,71.1,2.3,2.6,253.5,253.7,2.3,2.6,NaN, NaN,23.0,181.9,354.3,1152318050,1152318049,2,0.0,001250,001249,181.9,32.707278,-117.236697,NaN,NaN,NaN,25.646, NaN,NaN,NaN, NaN, NaN
20060708,002120,87659,32.707138,-117.236750,0.0,25.641,33.892,52.227,2000.10,0.0,10.332,22.138, NaN, NaN,22.309,   NaN,22.87,1013.04,80.82,22.86,86.3,85.3,3.3,3.5,268.8,267.7,3.3,3.5,NaN, NaN,24.0,181.8,354.3,1152318080,1152318079,2,0.0,001280,001279,181.8,32.707276,-117.236695,NaN,NaN,NaN,25.647, NaN,NaN,NaN, NaN, NaN
20060708,002150,87689,32.707138,-117.236750,0.0,25.642,33.891,52.226,1991.92,0.0,10.313,22.139, NaN, NaN,22.307,   NaN,22.84,1013.03,81.19,22.85,75.9,78.7,3.3,3.4,258.4,261.2,3.3,3.4,NaN, NaN,24.0,181.7,354.3,1152318110,1152318109,2,0.0,001310,001309,181.7,32.707308,-117.236695,NaN,NaN,NaN,25.648, NaN,NaN,NaN, NaN, NaN
20060708,002220,87720,32.707138,-117.236745,0.0,25.643,33.892,52.228,1996.20,0.0,10.332,22.142, NaN, NaN,22.308,   NaN,22.82,1013.03,81.41,22.83,66.5,66.3,2.5,2.3,249.3,249.2,2.5,2.3,NaN, NaN,22.0,181.8,354.3,1152318140,1152318139,2,0.0,001340,001339,181.8,32.707305,-117.236698,NaN,NaN,NaN,25.649, NaN,NaN,NaN, NaN, NaN
20060708,002250,87750,32.707138,-117.236743,0.0,25.644,33.892,52.229,1993.34,0.0,10.294,22.152, NaN, NaN,22.308,   NaN,22.83,1013.02,81.79,22.82,65.3,60.5,2.5,2.4,248.0,243.3,2.5,2.3,NaN, NaN,22.0,181.8,354.3,1152318170,1152318169,2,0.0,001370,001369,181.8,32.707300,-117.236700,NaN,NaN,NaN,25.650, NaN,NaN,NaN, NaN, NaN
20060708,002320,87779,32.707141,-117.236747,0.0,25.645,33.892,52.231,1987.31,0.0,10.276,22.174, NaN, NaN,22.307,   NaN,22.78,1013.02,81.76,22.78,67.0,62.3,2.5,2.8,249.8,245.0,2.5,2.7,NaN, NaN,20.0,181.8,354.3,1152318200,1152318199,2,0.0,001400,001399,181.8,32.707301,-117.236693,NaN,NaN,NaN,25.651, NaN,NaN,NaN, NaN, NaN
20060708,002350,87809,32.707145,-117.236738,0.0,25.647,33.892,52.233,1980.82,0.0,10.313,22.195, NaN, NaN,22.307,   NaN,22.81,1013.03,81.98,22.82,80.0,77.2,1.9,2.3,264.0,260.3,1.9,2.3,NaN, NaN,19.0,181.8,354.3,1152318230,1152318229,2,0.0,001430,001429,181.8,32.707308,-117.236680,NaN,NaN,NaN,25.653, NaN,NaN,NaN, NaN, NaN
20060708,002420,87839,32.707153,-117.236737,0.0,25.648,33.893,52.235,1971.52,0.0,10.313,22.207, NaN, NaN,22.307,   NaN,22.85,1013.02,81.59,22.85,81.7,79.5,1.9,2.4,265.6,262.7,1.9,2.4,NaN, NaN,19.0,181.8,354.3,1152318260,1152318259,2,0.0,001460,001459,181.8,32.707310,-117.236682,NaN,NaN,NaN,25.654, NaN,NaN,NaN, NaN, NaN
20060708,002450,87870,32.707153,-117.236743,0.0,25.650,33.893,52.236,1961.86,0.0,10.294,22.216, NaN, NaN,22.306,   NaN,22.82,1013.02,80.78,22.82,78.1,71.1,2.5,3.2,261.1,253.8,2.5,3.2,NaN, NaN,20.0,181.9,354.3,1152318290,1152318289,2,0.0,001490,001489,181.9,32.707296,-117.236698,NaN,NaN,NaN,25.656, NaN,NaN,NaN, NaN, NaN
20060708,002520,87900,32.707141,-117.236753,0.0,25.650,33.891,52.235,1960.15,0.0,10.350,22.236, NaN, NaN,22.305,   NaN,22.69,1013.00,80.69,22.70,77.1,71.9,2.4,3.2,260.1,254.6,2.4,3.2,NaN, NaN,23.0,181.8,354.3,1152318320,1152318319,2,0.0,001520,001519,182.0,32.707280,-117.236700,NaN,NaN,NaN,25.656, NaN,NaN,NaN, NaN, NaN
20060708,002550,87929,32.707135,-117.236760,0.0,25.652,33.893,52.238,1969.11,0.0,10.332,22.254, NaN, NaN,22.306,   NaN,22.65,1013.02,81.00,22.65,78.8,74.8,2.0,2.5,262.0,257.8,2.0,2.5,NaN, NaN,23.0,181.8,354.3,1152318350,1152318349,2,0.0,001550,001549,181.9,32.707285,-117.236695,NaN,NaN,NaN,25.658, NaN,NaN,NaN, NaN, NaN
20060708,002620,87959,32.707130,-117.236765,0.0,25.653,33.893,52.240,1975.43,0.0,10.350,22.268, NaN, NaN,22.305,   NaN,22.67,1012.94,81.06,22.68,84.3,78.1,1.4,1.5,267.9,262.3,1.4,1.5,NaN, NaN,21.0,181.8,354.3,1152318379,1152318379,2,0.0,001580,001579,181.8,32.707290,-117.236692,NaN,NaN,NaN,25.659, NaN,NaN,NaN, NaN, NaN
20060708,002650,87989,32.707128,-117.236758,0.0,25.653,33.893,52.240,1981.08,0.0,10.332,22.275, NaN, NaN,22.305,   NaN,22.81,1012.98,80.88,22.81,93.7,81.4,1.5,1.6,277.2,265.5,1.5,1.6,NaN, NaN,21.0,181.8,354.3,1152318410,1152318409,2,0.0,001610,001609,181.8,32.707291,-117.236697,NaN,NaN,NaN,25.659, NaN,NaN,NaN, NaN, NaN
20060708,002720,88019,32.707128,-117.236747,0.0,25.655,33.892,52.240,1968.69,0.0,10.313,22.281, NaN, NaN,22.304,   NaN,22.88,1012.94,80.59,22.89,102.6,92.9,2.2,2.0,285.5,276.0,2.2,2.0,NaN, NaN,20.0,181.9,354.3,1152318440,1152318439,2,0.0,001640,001639,181.7,32.707286,-117.236702,NaN,NaN,NaN,25.661, NaN,NaN,NaN, NaN, NaN
20060708,002750,88050,32.707130,-117.236750,0.0,25.656,33.893,52.242,1963.18,0.0,10.350,22.281, NaN, NaN,22.304,   NaN,22.97,1012.94,80.57,22.96,105.3,111.2,2.6,2.1,288.2,294.1,2.6,2.1,NaN, NaN,20.0,181.8,354.3,1152318470,1152318469,2,0.0,001670,001669,181.8,32.707281,-117.236705,NaN,NaN,NaN,25.662, NaN,NaN,NaN, NaN, NaN
20060708,002820,88080,32.707135,-117.236743,0.0,25.657,33.892,52.243,1965.45,0.0,10.388,22.286, NaN, NaN,22.304,   NaN,23.05,1012.94,80.37,23.04,104.0,108.3,2.5,2.4,286.8,291.0,2.6,2.4,NaN, NaN,20.0,181.8,354.3,1152318500,1152318499,2,0.0,001700,001699,181.8,32.707296,-117.236692,NaN,NaN,NaN,25.663, NaN,NaN,NaN, NaN, NaN
20060708,002850,88109,32.707145,-117.236742,0.0,25.658,33.893,52.244,1967.52,0.0,10.332,22.282, NaN, NaN,22.304,   NaN,23.14,1012.89,79.69,23.14,84.9,88.1,2.6,2.3,267.5,271.0,2.6,2.3,NaN, NaN,20.0,181.7,354.3,1152318530,1152318529,2,0.0,001730,001729,181.7,32.707290,-117.236700,NaN,NaN,NaN,25.664, NaN,NaN,NaN, NaN, NaN
20060708,002920,88139,32.707146,-117.236750,0.0,25.660,33.892,52.245,1961.84,0.0,10.332,22.276, NaN, NaN,22.303,   NaN,23.13,1012.91,79.47,23.13,90.9,90.6,2.3,2.1,273.9,273.8,2.3,2.1,NaN, NaN,19.0,182.0,354.3,1152318560,1152318559,2,0.0,001760,001759,182.0,32.707286,-117.236717,NaN,NaN,NaN,25.666, NaN,NaN,NaN, NaN, NaN
20060708,002950,88169,32.707160,-117.236753,0.0,25.660,33.893,52.247,1963.52,0.0,10.294,22.273, NaN, NaN,22.304,   NaN,23.09,1012.88,79.27,23.09,94.1,92.8,2.4,2.6,277.2,275.8,2.4,2.7,NaN, NaN,21.0,181.8,354.3,1152318590,1152318589,2,0.0,001790,001789,181.8,32.707286,-117.236713,NaN,NaN,NaN,25.666, NaN,NaN,NaN, NaN, NaN
20060708,003020,88199,32.707150,-117.236750,0.0,25.661,33.892,52.247,1958.41,0.0,10.350,22.273, NaN, NaN,22.302,   NaN,23.04,1012.87,79.79,23.02,92.5,91.7,3.3,3.4,275.2,274.3,3.3,3.4,NaN, NaN,20.0,181.8,354.3,1152318620,1152318619,2,0.0,001820,001819,181.8,32.707293,-117.236715,NaN,NaN,NaN,25.667, NaN,NaN,NaN, NaN, NaN
20060708,003050,88230,32.707150,-117.236753,0.0,25.663,33.892,52.248,1956.79,0.0,10.350,22.271, NaN, NaN,22.302,   NaN,22.97,1012.87,80.66,22.97,104.6,102.8,3.4,3.0,287.3,285.5,3.4,3.1,NaN, NaN,18.0,181.8,354.3,1152318650,1152318649,2,0.0,001850,001849,181.8,32.707290,-117.236710,NaN,NaN,NaN,25.669, NaN,NaN,NaN, NaN, NaN
20060708,003119,88258,32.707138,-117.236750,0.0,25.664,33.893,52.251,1945.25,0.0,10.350,22.264, NaN, NaN,22.302,   NaN,23.02,1012.92,80.79,23.02,109.3,106.3,2.5,2.2,292.3,289.5,2.5,2.2,NaN, NaN,18.0,181.9,354.3,1152318679,1152318679,2,0.0,001880,001879,181.9,32.707291,-117.236715,NaN,NaN,NaN,25.670, NaN,NaN,NaN, NaN, NaN
20060708,003150,88289,32.707135,-117.236742,0.0,25.665,33.892,52.250,1944.17,0.0,10.332,22.260, NaN, NaN,22.301,   NaN,23.04,1012.89,80.40,23.04,123.5,97.3,1.6,1.7,306.6,281.0,1.7,1.7,NaN, NaN,18.0,181.8,354.3,1152318710,1152318709,2,0.0,001910,001909,181.8,32.707286,-117.236707,NaN,NaN,NaN,25.671, NaN,NaN,NaN, NaN, NaN
20060708,003220,88319,32.707135,-117.236738,0.0,25.665,33.893,52.252,1940.17,0.0,10.313,22.265, NaN, NaN,22.302,   NaN,23.10,1012.89,80.53,23.10,131.5,106.1,1.7,1.5,314.2,289.7,1.7,1.5,NaN, NaN,18.0,181.8,354.3,1152318740,1152318739,2,0.0,001940,001939,181.9,32.707281,-117.236718,NaN,NaN,NaN,25.671, NaN,NaN,NaN, NaN, NaN
20060708,003250,88349,32.707141,-117.236737,0.0,25.667,33.893,52.254,1937.72,0.0,10.388,22.273, NaN, NaN,22.301,   NaN,23.19,1012.90,80.46,23.18,146.4,138.0,1.6,1.3,328.9,321.0,1.6,1.3,NaN, NaN,17.0,181.8,354.3,1152318770,1152318769,2,0.0,001970,001969,181.8,32.707280,-117.236710,NaN,NaN,NaN,25.673, NaN,NaN,NaN, NaN, NaN
20060708,003320,88380,32.707135,-117.236745,0.0,25.668,33.893,52.256,1934.73,0.0,10.369,22.281, NaN, NaN,22.301,   NaN,23.26,1012.91,79.94,23.26,136.9,122.9,1.6,1.6,319.7,305.9,1.6,1.6,NaN, NaN,16.0,182.0,354.3,1152318800,1152318799,2,0.0,002000,001999,182.0,32.707270,-117.236710,NaN,NaN,NaN,25.674, NaN,NaN,NaN, NaN, NaN
20060708,003350,88410,32.707138,-117.236753,0.0,25.670,33.892,52.256,1930.01,0.0,10.313,22.288, NaN, NaN,22.300,   NaN,23.31,1012.89,79.42,23.31,89.2,96.8,1.7,1.6,272.8,281.4,1.7,1.6,NaN, NaN,15.0,181.8,354.3,1152318830,1152318829,2,0.0,002030,002029,181.8,32.707275,-117.236695,NaN,NaN,NaN,25.676, NaN,NaN,NaN, NaN, NaN
20060708,003420,88439,32.707145,-117.236755,0.0,25.670,33.893,52.258,1932.16,0.0,10.313,22.291, NaN, NaN,22.301,   NaN,23.33,1012.93,79.40,23.32,98.7,124.1,1.3,1.0,284.6,309.2,1.3,1.0,NaN, NaN,17.0,181.8,354.3,1152318860,1152318859,2,0.0,002060,002059,181.7,32.707278,-117.236682,NaN,NaN,NaN,25.676, NaN,NaN,NaN, NaN, NaN
20060708,003450,88469,32.707136,-117.236758,0.0,25.671,33.894,52.260,1926.90,0.0,10.369,22.297, NaN, NaN,22.301,   NaN,23.36,1012.89,79.30,23.36,116.9,132.2,1.5,1.4,302.1,316.1,1.6,1.4,NaN, NaN,19.0,181.8,354.3,1152318890,1152318889,2,0.0,002090,002089,181.8,32.707281,-117.236675,NaN,NaN,NaN,25.677, NaN,NaN,NaN, NaN, NaN
20060708,003520,88499,32.707146,-117.236753,0.0,25.673,33.893,52.260,1924.41,0.0,10.350,22.300, NaN, NaN,22.300,   NaN,23.35,1012.95,79.00,23.35,114.5,120.4,2.1,2.2,297.6,303.4,2.2,2.2,NaN, NaN,20.0,181.9,354.3,1152318920,1152318919,2,0.0,002120,002119,181.8,32.707286,-117.236680,NaN,NaN,NaN,25.679, NaN,NaN,NaN, NaN, NaN
20060708,003550,88529,32.707148,-117.236752,0.0,25.673,33.893,52.260,1912.99,0.0,10.350,22.300, NaN, NaN,22.299,   NaN,23.33,1012.92,78.90,23.33,103.2,91.5,2.2,2.4,285.8,274.0,2.2,2.4,NaN, NaN,21.0,181.8,354.3,1152318950,1152318949,2,0.0,002150,002149,181.8,32.707283,-117.236682,NaN,NaN,NaN,25.679, NaN,NaN,NaN, NaN, NaN
20060708,003620,88560,32.707153,-117.236765,0.0,25.675,33.893,52.262,1896.02,0.0,10.332,22.296, NaN, NaN,22.299,   NaN,23.28,1012.92,79.29,23.28,94.5,83.8,2.6,2.3,276.8,266.3,2.7,2.3,NaN, NaN,18.0,181.8,354.3,1152318980,1152318979,2,0.0,002180,002179,181.8,32.707283,-117.236678,NaN,NaN,NaN,25.681, NaN,NaN,NaN, NaN, NaN
20060708,003650,88590,32.707158,-117.236762,0.0,25.676,33.893,52.263,1896.18,0.0,10.313,22.290, NaN, NaN,22.299,   NaN,23.31,1012.96,79.40,23.30,103.6,91.6,2.1,1.7,286.9,275.0,2.1,1.7,NaN, NaN,16.0,181.8,354.3,1152319010,1152319009,2,0.0,002210,002209,181.8,32.707300,-117.236678,NaN,NaN,NaN,25.682, NaN,NaN,NaN, NaN, NaN